Theta_e
298 299 299 299 298 298 297 297 298 297 298 298 297 297 299 301 293 291 299 301 299 301 304 309 312 311 314 317 316 317 318 316 315 313 312 311 311 311 310 310 309 309 309 309 309 310 310 310 310 311 312 311 311 310 310 310 309 308 309 308 308 307 306 305 305 306 306 306 306 306 306 306 307 307 307 307 306 306 307 307 308 307 308 307 306 305 305
298 298 299 300 298 297 297 297 297 298 298 299 299 299 300 300 299 299 300 301 301 303 305 309 312 316 318 318 318 318 315 315 313 313 311 311 310 309 309 309 309 309 309 310 310 310 310 310 310 310 310 310 309 309 309 309 308 308 308 307 306 305 304 304 305 305 305 306 306 306 305 305 306 306 306 307 306 306 306 307 307 307 307 307 306 305 304
296 298 299 299 299 298 297 298 298 298 298 299 299 299 300 300 300 301 301 301 301 305 309 309 311 316 319 318 316 315 315 313 313 312 311 311 310 309 309 309 309 310 310 310 310 311 311 310 311 310 309 309 309 310 309 308 307 307 307 306 305 303 302 303 304 304 304 304 305 304 305 305 305 305 305 306 306 306 306 307 307 307 307 306 305 305 303
293 298 298 297 298 298 298 297 298 298 298 297 298 296 300 299 297 299 300 298 299 306 309 313 315 316 317 315 315 314 314 313 313 312 311 312 311 310 310 310 310 310 310 310 310 309 310 310 310 309 308 309 309 309 309 308 307 306 306 305 303 303 303 304 304 303 303 303 303 303 304 303 304 304 305 305 305 305 306 306 306 307 306 305 306 305 304
289 297 298 297 297 297 293 293 299 300 300 300 301 301 301 302 302 297 293 297 304 306 309 312 314 315 316 316 315 314 314 313 312 311 311 312 312 311 310 310 309 309 309 309 309 309 310 309 309 310 310 309 309 309 308 308 307 306 305 304 303 303 303 303 303 303 303 302 302 303 303 303 304 304 304 304 304 304 304 305 306 305 305 305 305 305 304
289 296 298 298 294 286 287 305 307 303 300 300 299 300 301 303 303 300 302 303 306 306 308 310 313 314 315 316 317 318 316 313 313 312 312 312 311 310 310 310 309 309 309 309 309 310 310 310 311 311 311 310 309 310 309 308 306 305 304 303 303 302 303 302 302 302 302 302 302 302 303 303 303 303 304 303 305 305 305 305 304 304 304 305 305 304 304
289 295 296 290 284 287 306 308 309 309 306 304 303 303 303 304 304 304 304 304 305 306 311 311 314 316 316 318 318 317 317 316 314 313 312 312 311 310 309 309 309 309 309 310 310 310 310 310 310 310 309 309 309 308 308 306 305 304 303 302 302 302 302 302 302 302 301 302 302 302 302 303 303 303 303 303 303 304 304 303 303 303 303 303 304 304 304
293 291 290 283 285 302 306 307 306 310 308 308 305 301 303 305 306 306 303 304 306 308 310 311 313 315 317 317 317 317 317 316 315 313 312 312 311 310 310 310 309 309 310 310 310 310 311 310 310 310 309 308 307 307 307 305 304 303 303 302 302 302 302 302 302 302 301 301 302 302 302 302 302 302 303 303 303 303 303 303 303 303 303 303 302 303 304
287 289 290 289 299 298 303 301 305 302 300 302 300 293 299 306 307 306 304 305 306 308 312 313 315 317 316 314 314 318 317 316 316 315 315 314 312 313 312 312 311 312 312 312 311 311 310 311 310 309 308 307 306 305 304 303 303 302 302 301 301 302 302 302 302 302 302 301 301 301 301 301 302 303 302 302 303 303 303 303 302 302 303 302 302 302 302
293 290 289 289 289 285 293 301 307 310 310 310 308 301 297 306 308 308 306 305 306 308 312 315 316 317 311 308 311 315 317 317 317 317 316 316 315 314 313 313 313 313 312 312 311 311 310 310 310 308 307 306 304 303 302 302 301 301 301 301 302 302 302 302 302 302 302 302 301 301 301 301 301 302 303 303 303 303 302 302 301 302 303 303 303 302 301
291 289 287 287 285 288 297 302 306 312 315 312 312 302 294 304 307 308 307 306 307 309 313 315 316 311 304 306 311 316 317 317 317 315 314 315 315 315 314 312 311 311 311 311 310 310 310 309 308 308 306 305 302 301 301 301 301 301 301 301 302 302 302 302 302 302 302 302 302 301 301 302 303 302 303 303 303 303 302 302 302 302 302 302 302 303 303
291 290 288 287 290 290 299 310 311 312 313 314 307 290 290 304 308 310 309 307 308 312 316 316 314 308 301 303 310 318 317 316 317 316 314 314 315 314 313 312 312 311 311 310 310 309 308 308 308 306 305 303 302 301 301 301 301 301 301 302 302 303 302 303 303 303 303 303 302 302 301 302 303 303 303 303 303 303 302 302 301 301 301 301 301 301 302
290 288 289 290 291 303 310 310 312 311 314 309 293 287 295 311 310 311 310 309 310 315 315 315 309 311 315 318 317 318 318 316 316 316 316 315 314 313 312 312 309 311 311 310 309 309 309 308 306 305 303 302 301 301 301 301 301 301 302 303 303 303 303 303 303 303 303 303 303 303 303 303 303 303 303 303 303 302 301 302 302 302 302 302 302 302 302
291 291 289 289 292 306 311 310 312 313 306 292 291 308 310 317 314 313 311 310 312 316 316 315 313 316 318 319 318 317 316 315 315 315 314 314 314 313 313 310 310 311 309 309 309 309 309 307 305 304 302 301 301 301 300 301 302 303 303 303 303 303 302 302 303 303 303 304 304 304 303 303 303 302 303 304 304 303 302 302 302 302 302 302 301 301 302
293 291 290 288 285 297 314 311 309 310 296 294 308 313 313 315 316 314 314 314 316 317 315 317 318 317 318 317 316 316 316 316 315 315 314 313 312 311 311 310 310 310 309 308 308 309 307 306 305 303 302 301 301 301 301 302 303 303 303 303 302 302 302 302 303 303 304 304 304 304 304 303 302 302 302 303 303 303 303 302 302 301 301 301 301 300 301
289 289 287 288 297 306 313 309 298 307 310 312 315 315 312 314 315 315 315 317 318 318 317 316 316 317 316 316 316 316 315 316 316 315 314 314 313 312 311 311 310 310 309 309 308 308 306 305 304 303 302 301 301 301 301 303 303 303 303 303 302 302 302 302 303 303 303 304 304 305 304 304 303 303 302 303 302 303 302 301 300 300 300 301 300 299 299
294 291 296 307 309 310 313 313 314 314 314 314 315 316 315 314 315 317 315 317 319 319 318 317 316 315 316 315 316 315 315 315 315 313 313 312 312 311 309 310 310 309 310 309 308 306 305 305 304 303 303 301 301 301 303 303 303 302 303 302 303 302 302 302 302 302 303 303 303 304 304 304 302 302 303 303 301 302 302 301 300 299 299 300 299 299 299
305 306 307 310 308 310 312 313 315 314 312 314 316 316 315 316 316 317 316 318 319 319 319 316 315 315 316 316 315 315 315 315 314 314 313 312 313 312 310 310 308 307 308 308 306 305 304 304 303 303 303 302 301 302 303 303 303 303 303 303 302 301 301 301 301 301 302 302 302 303 304 304 303 303 303 302 302 302 301 301 300 300 298 298 298 299 298
299 293 307 306 308 311 313 311 312 315 314 314 315 315 316 316 317 317 318 319 319 319 319 317 315 315 316 315 315 315 315 314 313 312 312 313 311 310 308 308 307 307 307 306 305 304 303 304 303 303 303 302 303 303 303 303 303 303 303 302 301 301 300 301 301 301 301 301 301 303 304 303 303 302 302 301 302 301 301 301 301 299 299 299 298 298 298
297 295 307 310 311 311 312 312 311 309 311 313 313 315 316 316 317 318 318 319 318 319 318 317 315 315 315 313 313 312 312 312 312 311 311 310 310 311 310 308 307 307 306 305 304 304 303 303 302 302 302 301 303 303 303 303 303 303 301 301 300 300 300 300 300 301 301 295 298 301 302 303 301 301 302 303 302 301 301 301 301 300 300 298 297 299 299
302 306 307 308 309 309 309 312 313 313 313 312 313 313 313 314 315 316 316 318 318 318 317 317 316 314 314 314 313 312 312 312 312 312 312 311 311 309 307 307 306 306 306 305 304 303 302 303 302 301 301 301 303 303 303 303 303 301 300 300 301 301 300 300 300 301 302 301 301 301 302 302 302 302 301 303 302 301 302 301 299 300 302 299 299 300 300
297 298 303 306 299 296 307 309 311 312 314 314 313 313 312 313 313 314 315 315 317 317 317 317 316 314 313 314 314 312 312 311 311 311 311 310 309 308 307 306 306 306 306 305 304 303 302 302 302 301 301 302 303 302 302 302 301 301 301 300 301 300 300 300 301 301 302 299 302 302 301 301 302 302 291 291 297 302 298 289 282 284 290 298 300 299 300
295 304 307 310 310 308 310 312 312 313 315 314 313 312 312 313 314 314 314 313 314 314 316 317 316 314 314 313 314 312 312 312 312 312 311 309 308 306 306 305 305 305 305 305 304 302 302 302 301 301 301 302 302 301 301 302 302 302 301 300 300 300 301 301 300 302 301 299 302 303 302 301 301 298 298 298 288 290 294 293 293 288 284 282 281 286 296
306 309 308 310 309 306 309 312 312 313 315 314 313 313 314 314 314 314 314 314 313 313 314 315 316 314 314 314 313 312 312 312 312 311 310 309 307 306 305 305 305 305 304 303 302 301 301 301 300 300 300 302 302 301 302 302 302 301 301 300 301 301 301 302 301 300 302 301 302 303 302 302 301 300 298 297 298 291 290 291 288 288 288 287 287 287 285
307 310 310 309 310 311 312 311 312 314 314 313 313 313 314 314 313 314 314 314 314 314 313 313 315 315 313 313 313 312 311 311 311 309 308 306 305 305 305 305 304 304 303 303 302 302 301 301 300 300 300 302 302 301 302 302 301 301 301 301 303 303 302 302 300 300 301 302 302 302 302 301 302 302 301 299 297 296 296 290 289 289 289 288 287 287 286
310 310 310 310 309 310 311 309 310 311 312 312 313 313 312 310 312 312 313 314 314 314 314 314 313 314 314 312 311 312 311 310 308 307 308 305 304 305 307 306 305 304 303 302 302 301 301 300 300 300 301 301 301 301 300 301 302 302 302 302 303 303 302 303 301 301 301 302 302 302 303 301 302 301 301 302 301 300 297 296 296 291 290 288 288 288 286
309 310 308 306 307 308 308 309 309 311 312 312 313 312 312 312 308 312 313 314 314 314 314 314 314 313 312 312 310 311 309 307 307 306 304 302 302 303 304 305 304 304 303 302 301 300 298 301 300 301 300 300 300 300 301 301 302 303 303 303 303 298 293 297 302 301 302 302 301 302 301 301 300 299 301 300 301 300 300 299 297 296 296 297 291 288 293
309 309 309 308 307 308 309 309 311 311 311 311 311 311 311 311 311 311 311 311 312 313 313 313 312 312 311 311 310 306 305 306 306 305 303 302 303 303 303 304 304 303 302 302 303 301 300 300 299 299 299 300 300 301 302 303 303 303 303 303 303 302 302 301 301 300 302 303 301 302 302 301 302 300 301 300 298 299 298 298 298 298 299 300 298 292 288
308 309 309 309 309 311 310 310 310 310 310 311 311 311 310 309 309 310 310 310 311 311 311 312 311 311 310 308 308 306 305 305 304 303 303 304 302 302 303 303 303 303 302 301 301 299 298 298 298 298 299 301 302 303 303 303 303 303 303 303 303 302 301 301 301 301 302 303 303 302 297 298 302 300 301 300 298 300 301 300 300 300 300 300 301 300 293
308 309 308 309 309 308 307 307 307 308 309 309 309 309 309 309 308 308 309 310 310 309 309 309 309 309 310 309 307 306 305 304 304 304 303 303 304 303 303 303 303 302 300 299 298 298 298 298 299 300 302 303 303 303 303 303 303 303 304 304 303 302 301 301 302 302 302 302 301 295 298 300 301 301 299 301 300 298 299 300 299 297 298 299 296 298 298
308 309 309 309 308 307 306 307 307 307 307 308 308 307 308 309 308 308 308 309 309 310 309 308 308 308 308 307 307 307 307 305 304 304 303 302 302 303 304 304 302 299 299 299 299 299 299 300 301 301 303 303 303 303 303 303 303 304 303 303 303 296 292 292 294 302 302 301 300 300 300 299 300 299 297 299 299 299 299 299 298 297 296 300 300 299 299
307 307 307 307 306 306 306 307 306 306 306 307 306 306 307 307 307 307 307 306 308 309 308 307 308 308 308 308 307 306 305 304 303 302 301 301 302 303 303 303 302 298 301 301 301 300 300 301 300 301 303 303 303 303 303 303 303 302 302 298 302 303 296 292 297 298 303 299 301 300 298 300 299 299 300 298 299 298 299 299 299 298 298 299 298 300 300
304 304 304 304 304 305 305 306 305 305 306 305 306 307 308 308 308 307 307 307 307 307 307 307 308 308 308 306 306 305 304 302 301 300 300 300 300 301 301 303 303 303 303 304 303 302 302 301 301 303 303 303 303 303 303 303 303 302 302 302 303 303 296 295 296 299 299 301 300 301 301 299 300 301 299 299 299 297 299 298 299 297 298 298 298 300 299
305 304 305 306 305 304 304 304 306 305 306 307 307 307 307 307 307 307 307 307 307 306 307 307 308 308 306 306 305 304 303 301 298 297 298 298 299 301 302 302 302 302 302 304 304 302 301 302 303 303 304 304 303 303 302 302 302 302 303 303 302 302 301 300 300 299 300 299 300 298 300 301 300 300 300 299 300 299 297 299 298 297 298 299 300 300 294
308 307 308 308 307 306 306 306 305 305 305 305 306 306 306 307 307 307 306 307 306 307 308 309 308 307 306 305 304 303 302 300 296 294 294 295 298 300 301 301 301 301 302 302 302 301 302 303 303 303 304 304 303 303 303 303 303 303 304 304 302 302 302 301 299 298 298 299 300 301 300 300 299 296 297 300 300 300 298 297 297 298 297 297 298 300 297
308 307 306 307 306 306 306 306 306 306 306 306 306 306 306 306 307 307 306 307 308 308 308 308 308 307 305 304 301 301 299 295 292 292 293 294 298 300 301 300 300 300 300 300 301 302 302 303 294 294 303 303 303 303 303 304 304 304 304 304 302 301 301 300 300 299 299 300 299 298 299 297 297 297 299 298 298 299 299 299 299 298 298 298 298 298 299
308 307 306 306 306 306 306 306 306 306 305 305 306 306 305 306 306 307 308 308 308 307 307 307 306 305 304 304 302 301 299 297 297 296 296 297 301 301 300 300 299 298 298 298 301 303 303 303 294 289 300 303 303 304 305 293 304 303 303 304 304 303 301 302 302 300 299 298 299 300 299 299 299 299 297 298 299 298 299 298 297 299 299 298 298 297 297
307 307 307 306 306 306 306 306 306 306 306 306 306 306 305 306 306 307 308 308 307 306 306 305 305 304 303 303 301 296 294 295 296 294 295 299 302 301 300 300 299 300 299 299 303 303 304 301 290 296 304 304 305 305 302 291 294 303 303 303 303 302 301 301 300 299 299 300 297 300 300 299 299 298 298 298 298 298 298 298 297 298 300 299 298 298 297
306 307 307 307 306 306 306 306 306 306 306 305 305 305 306 306 307 307 307 306 306 305 305 305 304 302 301 300 299 299 298 294 295 299 299 301 303 302 301 302 303 303 304 305 306 304 304 301 304 303 303 305 305 306 299 289 291 303 304 304 304 303 302 301 301 300 299 301 300 300 300 299 300 299 298 298 299 298 296 297 297 299 298 299 299 299 298
306 306 306 306 305 305 305 305 305 305 306 306 305 305 306 305 306 307 306 305 306 304 306 305 304 302 301 300 300 300 300 299 300 300 300 301 302 303 303 303 304 304 304 297 304 305 300 293 300 304 304 305 305 304 302 296 295 301 303 303 303 302 302 301 301 300 300 300 300 295 299 299 299 298 297 298 298 298 298 299 298 297 298 299 299 299 298
306 306 306 306 305 306 305 305 305 305 306 306 306 306 307 307 307 306 305 305 305 305 306 305 304 303 302 302 302 301 301 300 301 301 302 302 302 302 300 300 303 305 305 305 306 303 297 297 302 303 304 304 304 299 304 294 301 302 302 303 303 302 302 301 301 300 300 301 298 301 300 300 299 299 299 298 298 298 298 299 299 298 299 298 299 299 298
306 306 306 306 305 305 305 306 306 305 306 306 305 307 308 308 307 306 306 306 305 305 306 305 299 304 304 304 304 303 302 302 302 302 303 302 301 300 298 301 304 305 300 299 300 300 302 304 302 298 304 304 303 295 295 301 303 302 301 301 301 301 302 301 300 300 300 300 300 301 300 300 300 299 298 299 298 298 298 298 298 298 299 299 299 299 299
306 305 305 306 306 306 306 305 305 305 305 306 306 307 307 308 307 307 306 306 305 305 305 305 302 300 303 304 304 303 303 303 303 303 303 305 304 303 301 302 305 304 292 300 304 305 304 305 304 303 299 301 303 290 291 303 304 303 302 300 300 301 301 301 301 300 300 300 300 300 301 300 300 300 299 299 299 299 298 298 298 298 298 299 300 299 300
307 306 306 305 305 305 306 305 305 305 304 305 306 307 308 308 307 306 306 305 305 304 305 305 304 304 304 305 304 303 303 303 302 303 302 302 303 304 305 304 306 300 291 300 301 302 303 304 305 300 291 292 290 290 303 303 304 303 302 301 300 301 300 301 301 301 300 299 299 300 300 298 300 300 300 299 299 299 299 299 300 300 299 299 300 300 300
307 307 307 306 306 305 305 305 305 305 305 306 306 306 306 306 307 307 306 306 304 304 303 305 304 304 305 305 305 305 305 305 304 303 302 300 300 301 304 297 304 300 297 294 301 301 302 303 299 292 292 290 288 290 303 303 303 302 302 301 302 301 300 300 300 301 300 300 300 300 299 299 300 299 300 300 296 298 299 299 299 300 299 299 299 299 300
307 307 307 300 306 305 306 306 306 306 306 305 305 304 304 306 306 306 306 306 306 305 306 306 305 305 305 305 305 305 306 305 305 305 305 304 302 303 305 298 303 297 294 293 302 302 302 293 290 289 289 288 288 298 302 302 301 302 302 301 301 300 300 300 300 300 300 301 300 300 300 300 300 300 301 301 301 299 298 296 297 299 300 300 300 300 300
307 306 307 307 307 307 307 306 306 305 305 304 303 303 304 306 305 306 306 307 307 306 306 306 306 306 306 306 305 304 303 303 304 305 305 305 303 302 300 296 295 291 293 301 302 302 301 300 290 288 288 288 290 301 301 302 302 303 302 301 300 301 300 301 301 301 301 301 300 299 296 298 300 301 300 299 300 300 300 299 299 299 299 298 298 299 297
306 306 307 307 306 307 307 306 305 304 303 303 304 305 305 306 306 306 306 307 307 307 306 307 305 306 306 306 306 306 306 304 301 302 304 304 304 304 304 305 301 292 295 294 296 295 292 290 288 288 288 288 297 301 300 301 301 301 301 301 302 302 302 302 302 302 302 302 301 301 301 300 300 300 300 300 301 301 301 300 299 299 299 299 300 299 300
307 306 307 307 307 306 306 305 304 302 304 304 303 304 305 305 305 305 306 306 306 306 305 306 306 306 305 303 305 306 305 306 304 303 304 305 305 304 304 298 290 289 296 301 302 302 292 287 288 288 287 289 300 301 300 300 299 299 300 301 301 301 301 302 302 302 302 302 302 301 301 301 301 301 301 300 300 300 299 300 300 300 299 300 300 299 299
307 306 306 306 305 305 305 304 304 304 305 305 304 304 305 305 303 304 304 304 304 302 304 305 305 305 305 305 305 306 306 305 305 305 305 304 304 304 303 304 301 293 294 302 302 302 291 287 288 288 291 299 301 300 300 300 300 300 300 300 300 301 300 300 295 296 300 300 302 301 301 301 302 300 300 300 301 301 301 302 299 296 293 295 299 299 299
306 304 305 304 305 307 307 306 306 306 306 305 306 305 303 303 303 302 304 303 304 302 302 303 303 304 304 304 304 305 305 305 304 299 303 304 304 300 298 302 301 296 299 299 301 301 301 301 300 295 295 300 300 300 300 299 299 300 297 300 300 301 300 300 299 301 301 300 301 301 301 301 302 302 302 301 300 300 301 301 300 300 300 300 301 299 300
307 307 307 307 306 307 307 306 307 306 307 306 306 305 304 304 303 303 304 296 303 303 302 302 301 303 304 304 302 304 304 304 303 303 299 301 303 303 300 297 302 299 301 301 301 301 300 299 295 293 293 300 300 300 294 294 298 299 299 298 297 300 299 299 299 300 300 300 300 300 299 300 300 299 299 299 299 299 299 300 300 301 300 301 301 301 301
Wind_Speed
2 8 12 20 17 17 17 18 15 15 13 16 16 14 11 9 8 6 9 12 10 11 12 11 13 16 16 16 16 15 16 17 17 19 20 21 19 18 19 19 18 18 16 16 16 16 15 15 14 12 12 13 12 12 11 11 11 11 11 11 11 11 10 10 9 9 8 8 7 8 8 8 7 7 7 6 6 6 5 6 5 6 6 7 7 8 8
8 3 7 6 13 13 16 18 18 17 18 17 17 15 13 12 9 11 7 4 9 7 12 13 12 12 13 13 13 14 16 18 18 19 20 21 21 21 20 20 19 18 17 18 17 16 16 16 15 14 13 13 14 13 12 11 12 11 11 11 11 11 10 10 9 9 9 8 8 8 8 8 7 7 7 6 6 6 6 6 6 6 6 6 7 8 9
9 7 4 2 7 8 12 15 18 18 17 16 16 15 15 13 14 11 10 8 7 7 4 12 13 11 12 13 16 16 17 18 19 20 20 19 19 20 19 20 19 18 18 18 18 18 17 16 15 14 14 14 13 13 12 12 12 11 11 11 11 11 11 10 10 9 9 9 8 8 8 8 7 8 7 6 6 7 7 6 6 6 6 7 7 7 9
11 12 9 8 6 6 7 9 12 15 17 17 15 13 13 14 14 14 13 11 9 6 5 6 12 14 16 17 17 16 16 18 18 18 19 19 20 21 21 20 20 20 19 19 18 17 16 16 15 14 14 14 14 13 13 12 12 12 12 11 11 11 11 10 10 10 9 9 9 9 8 8 8 8 7 7 7 7 6 7 6 6 6 6 6 7 8
7 11 11 10 7 7 9 9 11 12 13 11 12 14 15 15 13 13 11 12 8 10 10 9 12 14 15 16 17 17 17 18 20 20 20 19 19 21 22 21 20 19 19 19 18 16 15 15 15 15 14 14 14 13 13 12 11 12 12 12 12 12 11 11 10 9 10 10 9 9 9 8 8 8 8 8 7 7 7 7 7 7 7 6 6 6 7
6 10 12 9 7 9 7 1 5 12 11 11 11 10 13 15 15 11 10 10 11 12 11 14 14 14 16 16 15 15 16 18 20 20 20 20 21 21 21 21 21 20 18 16 16 16 16 16 15 15 14 13 13 13 13 13 13 12 13 12 12 11 11 11 10 10 10 10 9 9 9 8 8 8 8 7 6 6 6 6 7 7 7 7 6 6 6
7 7 7 8 11 8 5 1 3 1 7 9 12 12 11 11 12 13 13 12 11 13 12 12 13 14 13 12 15 16 17 17 18 20 21 23 23 23 22 21 20 20 19 19 18 18 16 16 15 15 14 13 13 13 13 13 13 13 13 13 12 11 11 11 10 10 11 10 10 9 9 8 8 8 7 7 7 6 6 6 6 6 6 7 6 6 5
5 7 8 10 9 4 6 5 3 4 2 2 7 11 13 14 14 14 15 13 12 11 11 11 11 10 11 11 13 15 16 18 18 20 21 23 23 23 21 22 21 19 19 19 19 17 15 15 15 14 14 14 14 14 13 13 13 13 13 13 12 11 11 11 11 10 10 10 9 9 9 9 8 8 7 7 6 6 6 6 6 6 6 6 7 6 5
8 8 9 10 4 4 6 5 6 7 8 9 11 8 11 13 13 15 15 15 15 11 10 9 9 10 11 10 10 13 16 18 17 19 19 21 22 21 20 21 20 20 20 20 17 15 16 16 16 15 15 14 14 14 14 13 13 13 13 13 12 12 11 11 11 11 10 10 9 9 9 9 8 7 7 6 6 5 6 5 6 6 6 6 6 7 7
6 7 8 8 9 8 7 10 6 10 5 6 9 9 10 13 16 16 16 16 15 12 9 10 12 13 10 9 10 15 17 18 18 17 17 18 20 21 21 20 20 20 19 18 17 16 18 17 16 15 15 15 15 15 14 14 14 14 13 13 12 12 12 11 11 10 10 10 9 9 8 8 8 7 6 6 5 4 5 5 5 5 5 5 5 6 7
7 8 7 8 9 6 4 7 11 10 5 7 5 7 10 9 15 17 16 16 14 13 13 13 15 11 9 10 10 15 18 17 17 17 18 21 22 21 21 22 21 19 17 19 19 18 18 18 17 16 16 16 15 15 15 14 14 14 13 13 13 12 12 11 11 10 10 9 9 8 9 8 7 7 6 5 5 5 5 5 5 5 5 5 5 4 5
7 7 7 7 4 3 6 12 11 9 7 7 8 7 7 11 15 15 17 16 15 14 15 16 14 12 9 12 8 17 19 18 17 17 19 22 24 23 21 20 19 19 20 20 19 19 19 18 17 18 17 15 16 15 15 14 14 14 13 13 13 12 12 11 10 9 9 9 9 8 8 7 6 6 5 5 4 4 4 4 4 4 4 5 5 4 4
9 9 7 5 5 5 6 10 10 8 7 8 6 8 1 4 7 12 14 15 15 14 15 14 12 11 2 5 11 21 20 19 18 18 19 20 21 21 21 20 20 20 20 19 19 20 18 18 17 17 16 16 16 15 15 14 15 14 13 13 13 12 11 11 11 10 9 8 8 8 7 7 6 6 5 5 5 5 5 4 4 3 3 3 3 3 3
9 8 8 6 4 4 4 8 11 10 7 5 6 2 3 2 3 6 9 11 13 13 14 11 7 5 5 11 17 19 20 19 19 19 19 19 20 21 20 19 19 19 18 19 19 19 18 18 17 16 16 16 16 16 15 15 15 14 14 13 12 12 12 12 11 10 9 9 8 7 7 6 6 6 5 4 4 4 4 4 4 3 2 3 3 2 2
6 6 8 6 9 3 7 11 8 6 6 1 4 1 3 4 1 4 4 6 10 10 11 8 7 8 11 15 16 18 18 19 20 21 22 23 24 23 22 21 22 20 20 20 19 19 18 18 17 16 17 17 16 15 15 16 14 14 14 13 13 13 12 12 11 10 9 9 7 6 6 6 6 6 5 5 4 4 4 4 4 4 3 2 2 3 2
7 6 8 4 3 7 10 10 3 6 2 2 4 4 3 2 2 5 5 5 7 9 10 9 7 9 12 13 15 17 17 18 18 18 19 21 21 20 20 23 23 22 20 19 19 19 18 17 16 16 17 17 16 16 17 15 14 14 14 13 13 13 12 11 11 10 9 8 7 6 7 6 6 5 4 4 3 3 2 2 3 2 2 2 2 3 3
7 2 2 6 2 5 5 2 5 6 5 4 4 5 3 3 3 2 4 6 8 9 10 9 9 10 11 14 16 18 18 19 20 20 21 22 23 21 22 23 21 18 20 21 19 20 17 19 16 17 16 17 18 17 16 15 15 14 14 13 12 12 12 11 10 10 9 8 8 7 6 6 6 5 4 4 4 3 3 2 2 2 2 2 2 3 3
5 1 3 4 4 5 6 4 3 4 4 4 3 4 2 5 3 1 3 6 7 8 9 10 9 9 12 14 15 16 17 18 18 18 21 23 22 23 23 23 22 20 21 21 22 21 19 18 17 16 16 16 18 16 16 15 15 14 14 13 12 12 11 11 10 10 9 9 8 8 7 6 5 5 4 3 3 2 2 2 2 2 2 2 2 3 3
1 3 5 7 4 5 5 4 3 2 2 4 2 2 4 5 3 3 5 4 7 7 9 9 9 11 13 14 13 14 15 17 18 19 18 19 23 24 25 23 21 20 21 20 21 21 20 18 16 16 16 16 15 15 15 15 14 14 13 13 12 11 11 10 10 9 9 8 7 7 6 6 5 5 4 3 2 2 3 2 2 1 2 2 2 3 2
5 3 3 3 3 2 3 4 5 4 5 4 3 2 3 3 4 3 4 3 5 6 8 8 9 12 13 14 14 14 15 16 18 18 20 22 23 24 24 22 21 21 21 21 21 21 19 17 16 16 16 16 16 16 15 15 14 13 12 11 11 11 11 10 8 8 8 8 8 7 6 6 5 4 3 2 2 2 3 2 1 2 1 2 3 3 3
8 6 4 4 4 5 4 5 4 3 4 5 4 2 2 2 1 3 2 1 4 6 7 8 9 12 13 14 15 15 15 15 17 19 22 24 24 24 24 21 20 21 21 22 22 21 19 17 17 16 16 15 16 17 15 14 14 13 12 11 10 11 10 9 8 9 7 9 8 7 6 6 5 3 2 2 4 5 5 5 5 5 4 3 3 3 3
5 5 2 2 6 2 5 6 4 4 4 3 4 4 4 3 4 4 4 4 4 5 6 8 9 11 12 13 13 15 15 16 18 17 19 22 25 24 21 18 20 21 21 22 22 21 18 17 17 17 17 16 16 16 15 14 14 13 13 11 11 10 9 9 9 8 8 8 7 6 7 6 5 6 8 10 8 4 6 5 7 5 5 5 4 4 4
1 4 2 3 4 6 1 4 1 3 4 4 5 4 4 4 4 4 4 5 6 6 7 8 10 11 11 12 12 13 13 15 17 19 23 24 22 21 22 21 21 21 21 22 21 20 18 17 17 17 17 16 16 15 14 14 14 13 13 9 8 9 9 9 9 8 8 8 7 6 7 6 6 6 5 5 8 10 10 8 7 3 2 3 1 2 3
2 2 4 4 3 4 3 2 1 1 2 4 5 5 4 4 5 5 5 5 6 7 8 8 9 10 10 11 12 13 13 15 17 18 21 22 21 20 20 20 21 22 22 21 21 19 17 17 16 16 15 15 14 14 15 14 13 12 12 10 9 10 9 8 9 8 7 8 7 6 6 6 7 7 7 8 6 3 10 12 9 8 8 7 6 5 4
1 3 4 4 2 3 2 2 1 1 1 3 4 4 4 4 4 3 5 5 5 7 8 8 9 10 10 11 12 12 12 13 15 18 20 18 18 19 19 20 22 22 21 19 19 17 15 15 15 15 16 15 16 14 14 13 13 12 13 11 9 9 9 8 9 9 7 7 7 6 6 6 6 6 7 8 8 8 5 5 5 8 7 7 7 8 8
0 1 1 1 1 2 1 2 4 2 3 2 1 2 3 3 5 3 4 4 4 6 7 9 9 10 9 10 11 11 13 14 13 15 16 12 11 9 10 12 15 19 20 19 18 17 16 17 16 15 14 15 15 13 12 11 12 13 13 11 10 9 9 9 10 9 7 7 7 6 6 6 6 6 5 5 6 9 9 8 6 4 7 8 9 7 8
1 1 1 2 4 3 2 3 3 4 3 2 1 3 3 4 2 2 3 4 4 6 7 9 9 8 8 9 10 10 10 13 14 12 12 12 12 13 11 11 13 12 16 17 17 16 17 17 16 14 14 14 12 12 13 14 13 12 12 11 10 7 8 9 9 9 8 7 7 7 6 6 6 6 5 4 2 3 4 8 9 10 10 9 10 12 10
2 1 1 3 4 4 4 3 3 2 3 3 3 2 4 4 4 4 5 5 6 6 7 7 7 8 10 9 11 14 15 16 14 14 15 14 11 10 12 13 14 14 13 15 17 16 15 16 15 14 13 14 15 15 14 14 14 13 12 12 11 9 9 8 8 8 7 7 7 7 6 6 6 6 5 5 4 4 4 2 3 3 4 8 12 13 18
2 2 2 1 2 3 3 2 2 3 3 2 2 2 3 4 5 5 5 6 7 7 8 7 7 8 11 13 11 12 13 13 15 18 16 12 13 12 8 10 10 11 11 14 15 15 15 16 16 15 14 15 15 15 14 14 13 12 11 11 10 9 9 9 8 8 7 7 7 7 6 6 6 6 5 5 5 5 5 4 4 3 3 2 5 9 8
2 2 1 1 1 1 2 2 3 3 3 3 3 4 4 4 5 5 5 6 8 10 6 6 8 7 7 11 12 13 15 16 16 15 15 14 12 11 11 10 10 12 13 13 14 14 16 17 16 16 14 14 15 14 14 13 12 12 11 11 10 9 9 10 9 8 8 7 7 6 6 5 6 6 6 6 6 5 4 4 2 2 4 3 2 4 8
2 2 1 1 1 2 3 0 1 1 2 2 2 3 3 4 4 5 6 6 6 5 9 9 9 10 10 10 11 12 13 15 15 15 15 14 13 13 12 11 11 10 11 12 14 14 14 14 13 13 14 14 14 14 14 12 11 11 11 10 9 7 11 13 9 8 8 8 8 8 7 7 6 6 5 6 6 6 5 5 6 6 6 5 5 4 4
3 4 3 3 3 3 2 1 2 1 1 2 3 4 4 5 5 6 6 6 7 6 9 10 10 10 9 10 11 12 13 13 14 14 14 13 14 13 13 11 10 10 10 11 12 11 13 13 14 13 13 14 14 14 13 12 11 11 10 10 9 7 8 12 9 9 7 8 7 8 8 8 7 6 6 6 6 5 5 5 5 3 5 5 5 4 4
5 4 5 4 4 4 3 2 3 1 1 2 2 2 3 4 4 5 5 6 7 7 8 9 9 9 10 11 12 12 13 13 14 14 13 13 12 12 11 8 7 7 6 5 11 11 11 12 12 12 13 14 13 13 12 12 11 11 10 10 9 9 10 9 9 9 8 7 8 8 8 8 7 7 7 7 7 6 6 6 6 6 6 6 5 7 1
5 4 3 4 4 4 5 5 3 2 1 1 1 3 3 4 4 4 5 6 7 8 9 9 9 10 11 12 12 13 14 14 12 10 12 12 11 11 10 10 9 6 6 6 9 13 12 12 12 12 12 13 13 12 13 13 11 11 11 10 9 9 10 10 9 9 9 9 7 8 7 7 8 7 7 7 7 7 7 7 6 6 5 6 5 5 9
4 5 5 5 4 5 4 5 3 3 2 2 3 3 3 3 4 5 4 6 7 8 8 10 10 11 12 12 13 13 14 13 10 10 10 10 11 12 12 11 11 10 8 6 8 10 11 11 12 12 13 13 14 13 13 14 13 11 11 10 10 8 10 10 10 10 9 9 9 8 8 8 7 7 7 7 7 7 6 8 7 6 6 7 6 6 7
2 2 4 6 4 3 3 3 3 3 3 5 4 4 4 4 5 6 6 7 7 8 9 10 10 10 11 12 12 12 9 8 10 10 10 9 12 12 13 14 13 11 10 9 11 11 11 12 11 12 12 13 13 15 15 13 13 11 10 10 9 8 8 9 10 10 10 9 9 9 8 8 8 8 8 8 8 7 7 7 8 9 8 8 7 8 3
2 6 4 3 2 3 3 3 3 3 5 4 3 4 5 5 6 6 7 8 8 8 9 9 10 10 10 11 11 10 11 11 9 8 8 8 11 14 14 14 14 15 15 15 15 14 15 13 14 14 12 12 13 14 13 13 11 11 9 9 9 9 8 8 9 9 10 10 9 9 8 8 8 8 8 8 8 8 8 8 8 8 8 8 7 7 8
4 5 4 3 3 4 4 3 2 3 3 4 4 4 5 6 6 7 8 7 8 9 10 10 10 9 9 9 9 8 8 8 8 9 8 9 14 14 14 14 14 14 15 14 14 15 13 12 17 12 13 11 12 12 12 15 11 11 10 10 9 9 9 9 9 9 9 9 10 9 9 9 8 9 9 9 9 9 9 8 8 8 8 8 8 8 7
4 4 3 2 3 3 4 3 2 3 3 4 5 5 5 7 7 8 7 8 8 9 9 9 10 10 10 10 10 11 11 7 8 12 13 13 13 13 13 14 15 15 13 12 13 14 11 11 14 15 13 11 12 12 12 16 13 11 10 9 9 9 9 9 9 9 9 9 9 10 10 9 9 9 9 9 9 9 10 10 9 8 9 9 8 8 8
4 4 4 3 3 3 4 4 4 3 4 4 5 6 6 6 8 8 8 7 8 8 8 10 10 9 11 11 11 11 12 13 13 14 15 13 13 14 13 13 13 13 13 13 13 13 13 16 15 13 12 12 11 11 11 15 13 12 10 9 9 9 9 9 9 9 9 9 9 9 9 9 9 9 9 9 9 9 9 9 10 10 10 9 9 9 9
4 5 4 4 3 3 5 5 4 3 4 5 6 6 7 8 8 8 7 7 8 8 8 9 9 9 11 12 12 12 12 12 13 14 14 13 13 14 13 13 13 13 14 14 14 10 17 15 13 13 12 12 11 10 11 16 14 13 11 10 8 9 9 9 9 9 9 9 10 10 10 10 9 9 9 9 9 9 9 9 9 9 9 10 10 10 9
5 5 6 5 3 4 5 5 4 4 5 5 5 6 7 8 7 7 7 7 8 8 8 9 8 9 10 11 11 11 12 13 13 14 14 14 14 13 12 11 13 12 11 9 6 11 13 12 13 12 12 12 11 11 11 13 13 13 12 12 10 9 8 9 9 9 9 9 9 10 10 10 10 10 10 10 10 10 10 10 9 9 9 9 9 9 9
6 6 7 6 5 5 6 5 5 5 5 6 6 6 8 8 7 7 7 8 8 8 8 8 8 8 10 10 11 11 11 12 13 13 13 13 14 13 12 9 10 11 15 13 11 9 11 12 13 13 11 10 8 13 15 13 12 11 12 12 11 10 10 9 9 9 10 10 10 10 10 10 10 10 10 10 10 10 11 11 11 10 10 10 10 10 10
6 6 6 6 5 5 6 6 5 5 6 6 6 7 8 8 7 7 7 7 8 8 8 9 10 9 10 11 11 10 10 11 11 11 11 13 13 14 13 11 10 12 19 13 12 11 10 11 11 13 14 11 9 16 12 11 11 11 11 12 11 11 10 10 10 10 9 10 10 10 10 10 10 10 10 10 10 10 10 10 10 10 10 10 10 10 9
7 6 6 6 5 5 6 6 6 6 6 6 7 7 8 8 8 8 8 7 8 8 8 8 10 9 9 10 9 9 9 10 11 11 12 13 13 13 13 14 8 12 15 14 12 11 10 10 11 12 13 13 12 13 11 12 12 11 11 11 11 11 11 11 11 10 10 10 10 10 10 10 10 10 10 10 9 9 9 10 10 10 10 10 10 10 10
7 7 6 5 5 6 6 6 6 5 6 6 7 7 8 8 9 8 8 9 8 8 8 8 8 9 9 10 9 9 9 10 11 11 11 10 11 11 11 13 10 10 15 17 11 11 11 10 12 14 14 13 13 11 10 11 11 11 12 11 11 11 11 11 11 11 11 11 11 10 10 10 10 10 10 10 10 11 11 10 10 10 10 10 10 10 10
7 7 7 7 6 6 6 6 6 6 6 6 7 7 7 8 9 8 9 9 10 9 8 9 8 9 10 10 10 9 9 10 10 10 10 9 8 8 9 11 6 14 13 12 12 11 10 8 11 15 15 15 13 11 13 12 11 11 12 12 12 11 11 11 11 11 11 11 11 11 11 10 10 10 10 11 11 11 10 10 10 10 11 11 11 10 10
8 7 7 7 7 7 7 7 7 8 8 7 7 7 8 8 8 9 9 9 10 10 9 9 8 9 10 10 10 10 9 9 8 11 11 11 11 11 10 10 9 14 14 11 9 8 7 11 14 14 15 15 13 13 14 13 12 12 12 11 12 11 11 11 11 11 11 11 11 12 12 12 12 12 12 11 10 10 11 11 11 11 11 11 11 12 12
7 7 7 6 6 7 7 7 8 8 7 7 8 7 7 8 9 9 9 10 11 10 10 11 11 10 10 11 11 9 9 10 10 9 10 11 10 10 10 11 16 17 13 11 11 10 10 13 14 15 16 14 11 13 12 13 13 12 11 11 11 11 11 11 11 11 11 11 12 12 11 12 12 12 12 12 12 12 12 12 12 10 8 10 12 11 11
7 7 7 7 7 7 8 7 7 7 7 7 8 7 7 8 8 8 9 9 9 10 10 10 10 10 10 10 11 11 11 11 11 10 10 11 11 9 10 11 12 15 14 11 11 11 11 15 14 15 13 11 13 13 12 13 13 13 12 12 12 12 11 10 9 10 10 11 11 11 11 12 12 12 11 12 12 12 12 12 10 12 14 11 11 9 9
7 7 7 7 6 7 7 7 6 7 7 7 7 7 7 8 8 8 9 10 10 10 10 9 9 9 9 10 10 11 11 11 10 9 10 10 11 10 11 9 12 12 12 11 11 11 9 10 9 10 10 11 13 13 13 13 13 12 12 12 13 12 12 11 11 12 12 11 12 12 12 11 11 12 12 12 12 12 13 12 10 10 9 9 10 10 11
6 6 6 6 6 6 6 7 7 6 7 7 7 8 8 7 8 8 9 10 10 10 10 10 10 9 9 9 9 9 9 10 10 10 10 10 10 10 10 8 7 12 12 11 12 11 11 11 12 13 13 11 12 12 11 11 12 12 12 12 12 13 12 12 12 12 13 12 13 13 13 13 13 13 13 14 13 12 11 10 10 10 12 10 11 9 9
Wind_Direction
75 330 239 186 186 200 198 208 205 208 207 207 217 221 225 193 216 233 194 208 214 178 189 184 173 180 182 173 169 166 161 162 159 160 165 169 165 164 166 165 163 162 157 156 156 156 155 156 157 162 159 153 148 152 143 135 132 132 132 128 125 123 120 117 113 114 115 109 110 110 107 103 100 94 89 87 87 86 82 74 63 63 68 71 71 69 61
205 165 343 188 182 194 201 204 208 206 211 213 213 218 218 218 223 234 269 220 234 203 181 181 181 177 165 156 157 160 166 164 163 167 170 171 172 170 168 166 164 162 159 159 160 159 161 160 157 156 155 155 155 150 141 137 135 133 133 129 126 124 121 120 122 120 117 117 113 112 110 106 103 100 97 93 88 82 76 71 70 70 70 67 70 66 57
192 174 95 198 230 218 218 207 208 208 211 217 214 218 219 219 233 230 237 193 212 227 224 193 176 162 145 151 162 169 168 174 174 170 171 173 171 168 165 163 163 164 162 162 161 162 161 159 160 155 157 155 148 143 140 139 135 135 133 130 128 127 125 126 124 122 118 118 117 112 108 107 110 105 98 94 87 81 76 72 72 73 72 74 69 64 60
213 186 187 197 205 231 247 236 219 212 208 211 208 215 213 217 216 223 225 228 207 174 175 138 147 162 163 168 170 170 173 177 176 178 179 177 171 170 167 165 166 165 163 163 161 162 159 158 158 158 156 151 147 143 142 139 138 137 134 132 131 128 127 129 127 124 122 121 117 114 114 109 104 104 103 97 92 86 85 80 77 76 71 68 71 70 65
221 194 196 202 193 217 225 228 225 224 224 226 213 211 211 215 218 217 218 221 209 216 170 162 169 175 175 174 175 177 173 175 181 185 186 185 174 170 169 169 165 163 163 163 162 162 157 159 161 161 155 150 147 144 143 140 138 136 136 135 132 132 133 129 124 124 122 119 115 113 108 106 105 105 103 101 96 92 85 82 80 72 69 66 64 68 75
207 205 194 200 206 220 224 138 210 220 225 213 227 214 206 207 210 225 220 222 215 236 180 183 187 184 188 184 177 172 173 174 182 187 187 182 175 172 171 168 164 163 162 161 164 165 161 161 161 156 158 146 141 141 140 140 140 140 140 137 135 133 130 127 127 125 122 118 113 112 112 111 111 105 102 99 101 101 100 93 85 79 73 67 65 65 68
206 191 191 218 222 229 86 144 78 151 229 221 218 229 225 218 210 219 224 220 225 224 188 199 191 200 188 172 167 173 174 176 178 181 184 181 178 172 168 165 165 165 163 163 164 164 163 160 155 157 152 141 140 142 143 142 144 142 141 138 136 135 131 129 128 125 124 121 117 115 113 111 108 106 104 109 106 99 96 90 86 83 79 74 64 59 64
223 195 200 224 227 101 121 93 88 56 115 223 226 229 222 215 217 215 226 227 227 228 198 210 200 189 161 166 171 171 173 176 181 183 182 178 176 173 168 164 164 164 166 164 163 161 155 153 159 160 149 143 143 144 145 144 144 143 140 139 136 135 133 133 130 127 123 122 121 120 119 117 113 110 106 103 102 102 101 95 90 89 83 76 70 60 56
219 216 206 226 162 189 166 145 178 177 188 185 199 215 220 213 216 217 220 220 223 225 210 201 157 146 150 166 169 176 178 178 181 182 178 176 173 170 168 166 163 165 164 161 162 158 159 158 159 157 148 146 144 144 145 145 145 142 142 139 137 138 137 134 131 131 131 129 126 122 120 118 116 113 114 110 107 107 103 100 98 91 87 81 73 66 53
240 221 216 226 226 235 205 223 201 183 211 195 205 225 242 213 214 215 215 216 215 212 194 163 150 148 162 183 188 182 182 179 177 180 177 176 172 170 167 163 166 166 162 160 156 156 158 159 157 150 148 145 145 146 146 146 144 144 143 141 141 141 138 136 134 132 131 130 129 127 123 118 114 115 114 109 103 99 99 101 97 97 98 94 91 81 67
202 242 246 225 234 222 252 206 178 155 153 181 162 213 244 199 202 206 212 212 207 198 178 168 154 170 194 206 194 173 174 173 173 173 171 172 171 168 169 163 164 163 160 158 157 158 158 158 155 150 145 144 147 146 147 146 146 145 145 143 144 142 139 137 134 133 133 130 129 126 121 119 120 119 115 114 121 119 114 110 102 97 89 89 91 88 88
215 228 234 246 234 276 172 121 139 147 155 151 184 229 241 183 191 200 204 208 199 187 177 167 176 186 210 220 187 157 166 165 164 170 168 174 168 166 160 165 164 160 156 159 161 161 161 158 154 148 145 148 147 147 147 147 148 147 145 145 141 139 138 136 134 130 127 127 127 128 126 125 121 115 114 112 109 105 105 101 99 100 100 89 80 76 74
208 202 243 243 239 123 131 126 135 141 155 183 204 218 75 357 212 192 200 205 194 183 177 177 195 201 53 21 125 146 150 155 162 168 165 171 166 166 165 167 157 159 162 164 164 162 161 155 153 148 149 149 149 149 149 151 150 146 145 143 141 140 138 135 134 132 130 129 128 127 126 126 126 123 118 117 115 109 97 87 95 99 109 116 106 101 84
222 208 228 231 254 63 92 139 137 143 151 201 225 58 316 323 262 194 195 197 184 183 185 186 206 121 100 129 128 142 152 160 162 163 159 162 163 171 169 150 161 160 162 163 165 161 158 156 152 151 152 150 150 150 153 152 148 145 144 143 142 140 141 140 136 134 131 129 131 127 127 130 131 123 127 133 136 129 110 111 109 97 83 85 83 80 101
243 242 233 222 237 171 200 133 143 159 224 18 83 156 65 332 91 167 170 184 161 179 176 161 91 108 126 135 147 150 159 160 164 166 161 163 169 167 159 155 162 162 164 166 164 160 157 156 154 153 153 152 151 153 154 149 147 147 144 144 144 144 141 136 136 135 133 137 136 136 137 136 132 130 131 127 128 132 144 137 131 133 112 92 86 70 71
225 213 229 232 355 120 169 172 212 187 70 70 8 335 135 86 158 164 144 154 160 169 168 140 133 131 136 145 149 156 157 162 162 160 161 164 168 157 150 161 164 167 164 165 162 158 158 155 155 154 154 153 153 157 151 149 149 146 146 148 147 142 138 138 139 138 143 146 144 143 146 147 143 141 141 150 153 128 153 151 124 113 94 93 68 66 43
222 266 12 65 268 118 160 97 72 76 92 60 32 3 45 136 117 138 151 144 159 164 158 139 146 145 153 154 158 159 163 163 164 165 170 166 171 153 161 169 166 171 170 162 159 158 156 154 155 154 157 155 155 155 149 151 149 150 151 148 145 143 144 143 144 146 151 149 153 154 153 155 147 145 162 178 145 157 138 103 92 89 95 83 58 49 44
261 140 113 78 80 158 126 85 68 107 97 69 32 9 28 57 76 103 112 146 156 167 153 146 155 156 155 155 160 159 162 163 167 164 167 172 163 161 166 167 166 168 160 155 157 155 154 155 154 155 157 156 158 151 151 152 152 153 151 148 146 149 148 147 153 153 155 157 158 156 169 164 166 156 166 176 150 139 135 115 105 97 61 52 50 50 28
89 236 160 219 167 139 171 145 142 128 161 100 47 69 33 47 47 62 61 128 148 165 152 157 157 157 157 153 154 154 160 163 163 168 170 167 154 162 173 168 167 164 157 156 156 154 153 154 154 156 156 158 158 151 154 154 155 154 151 149 150 152 146 154 161 160 157 164 158 162 182 168 161 157 162 138 147 183 154 137 122 95 81 40 42 24 45
235 276 108 93 115 190 190 203 170 177 177 174 154 57 43 31 44 42 69 83 162 153 158 161 162 156 160 163 161 165 167 170 170 169 166 170 171 173 170 164 166 158 159 157 154 153 153 155 155 157 157 160 157 155 156 158 154 150 147 150 157 153 154 158 166 161 168 140 161 167 181 177 160 160 152 169 141 84 48 26 4 88 87 60 22 24 2
233 231 169 179 161 196 204 196 208 195 166 173 160 162 129 116 112 92 103 208 147 165 158 169 163 162 168 167 166 166 168 169 174 179 174 173 173 170 167 164 161 158 159 156 154 154 154 155 156 157 158 161 158 157 159 154 151 149 148 155 159 156 159 163 168 168 167 168 193 166 169 178 173 135 114 167 135 115 60 36 26 11 8 47 41 6 350
237 248 330 256 229 242 187 161 182 183 141 181 160 165 176 165 177 155 155 163 164 176 171 171 166 170 167 168 171 171 169 169 166 173 173 175 174 170 162 158 159 159 158 154 154 153 153 155 157 159 161 163 157 158 155 153 154 152 154 161 167 163 168 169 170 178 170 176 201 171 167 176 160 104 66 69 34 55 107 80 67 52 30 41 15 353 340
264 15 28 25 343 125 55 47 75 197 174 201 201 199 199 191 187 167 175 165 167 181 168 173 169 172 178 176 176 176 179 178 177 179 177 178 173 163 162 162 161 160 157 154 152 151 154 157 159 160 163 160 153 157 157 157 157 156 159 168 172 170 177 178 170 186 172 175 189 182 171 173 163 147 151 110 91 90 99 130 142 159 104 125 2 330 333
55 346 41 356 2 42 70 60 49 221 205 225 221 221 208 205 192 183 192 186 178 176 166 169 179 180 188 177 184 188 181 180 181 181 179 176 167 162 164 162 158 157 152 152 151 150 155 159 159 161 158 154 150 162 158 156 155 157 165 176 179 176 178 174 155 188 182 176 179 187 176 179 174 168 165 160 157 143 150 156 172 177 188 193 198 204 222
58 56 30 46 11 66 97 116 157 72 75 259 247 214 195 193 190 179 192 180 187 171 170 171 187 191 182 181 189 186 181 182 178 176 177 173 167 165 168 162 157 153 150 148 148 149 148 147 151 159 160 160 156 158 156 157 161 165 174 182 185 175 179 173 164 198 199 173 181 182 186 181 189 191 189 178 176 171 202 217 194 195 201 207 204 210 209
263 45 55 26 74 145 140 184 142 162 157 166 143 78 87 19 22 174 180 171 175 176 169 180 191 200 173 177 187 178 176 178 171 168 171 164 156 137 127 143 148 149 147 148 145 139 146 155 160 165 155 151 156 158 164 167 171 173 175 180 187 186 182 178 173 185 200 173 183 184 189 182 199 187 211 209 187 172 178 186 193 218 225 221 225 218 233
73 55 254 231 204 166 191 350 72 123 133 119 107 130 140 132 154 227 148 163 167 180 175 192 187 185 153 177 171 173 137 108 105 116 106 100 108 117 131 144 130 134 139 141 141 149 151 153 157 154 153 157 161 168 174 173 172 176 175 179 189 175 159 180 177 181 196 175 183 186 184 187 190 197 201 195 213 216 214 187 191 200 200 205 208 210 218
147 156 309 329 28 29 91 108 91 134 158 166 151 174 143 145 175 182 159 158 169 162 195 186 178 186 167 168 147 113 122 135 131 128 126 121 116 117 121 129 141 155 154 150 148 144 143 149 153 156 160 164 172 174 176 174 172 177 178 183 191 179 171 179 186 182 193 180 183 190 185 190 191 197 191 181 209 205 215 251 276 262 253 184 187 203 213
169 122 126 41 45 61 76 110 161 137 124 144 202 181 164 186 183 183 170 168 159 166 211 155 164 195 161 131 143 143 145 139 142 143 136 126 124 129 124 130 137 146 140 146 145 147 152 157 161 167 172 171 174 171 174 172 176 179 183 182 193 173 175 183 195 179 194 186 184 190 183 192 192 193 195 199 203 217 213 217 222 257 276 273 192 173 196
119 110 173 123 133 167 193 193 165 175 145 159 181 194 196 199 185 194 188 179 175 184 156 144 159 172 156 144 156 159 158 154 150 145 140 137 133 130 134 132 144 153 149 143 147 153 160 164 169 171 171 170 169 172 174 176 179 181 181 186 195 177 176 182 195 187 189 191 172 131 171 200 201 205 198 204 203 219 241 253 282 251 275 261 269 245 201
141 122 85 26 301 246 252 171 101 145 204 170 187 209 185 203 192 191 184 189 207 207 136 165 175 170 172 165 163 162 155 151 150 145 144 143 140 139 138 152 160 157 153 150 152 162 166 168 172 170 169 171 171 174 178 176 178 176 183 186 202 148 156 162 195 195 191 194 174 178 192 201 215 218 211 212 206 218 223 223 211 228 226 251 261 248 284
167 179 192 230 240 247 229 253 258 199 178 202 215 208 203 195 188 185 190 176 195 188 168 180 179 177 174 157 152 149 148 146 140 138 141 142 145 148 150 151 146 148 150 154 153 166 167 173 175 177 168 174 174 177 179 175 177 179 187 188 195 156 148 155 187 211 209 197 189 187 195 203 212 216 208 219 237 234 235 237 249 245 244 246 243 262 253
203 204 210 227 236 243 262 261 284 260 232 225 235 225 182 202 196 207 174 183 197 158 172 179 175 171 155 145 144 142 143 141 135 133 135 135 135 143 148 137 114 116 107 123 148 156 171 183 177 177 175 175 176 177 177 174 179 182 187 187 198 178 147 168 198 195 216 213 203 202 194 203 218 213 223 219 222 229 232 233 231 232 240 247 256 257 220
224 242 269 219 233 249 237 219 215 277 276 265 231 208 197 192 199 189 171 196 172 166 181 172 167 156 149 147 143 140 138 136 139 141 138 136 137 138 131 126 127 115 117 124 152 171 183 189 183 184 181 176 176 176 175 177 184 186 190 189 196 182 162 177 193 212 202 213 214 207 220 208 208 220 223 222 225 224 232 242 249 259 255 261 255 264 134
247 260 313 309 240 256 300 301 261 230 243 233 200 204 204 199 169 177 163 183 167 179 166 161 162 160 150 148 146 146 148 143 138 134 136 141 141 140 144 143 143 145 157 167 188 188 184 185 184 186 182 178 180 179 180 183 188 192 190 190 194 190 172 179 188 200 211 204 216 214 212 218 223 221 236 245 229 222 226 234 250 248 248 250 255 249 170
236 253 229 240 222 227 235 234 230 258 221 222 206 186 196 171 185 154 151 175 167 164 161 162 159 152 151 150 150 153 141 131 133 135 139 147 148 148 153 162 161 156 167 187 206 201 200 193 185 189 187 183 184 184 184 185 188 197 189 192 190 201 188 181 187 192 205 215 210 217 219 216 222 226 224 223 236 247 245 230 220 223 237 247 252 260 228
228 243 230 217 187 235 221 222 218 205 226 223 203 184 181 184 185 155 182 177 159 158 156 151 153 155 153 151 152 142 133 140 143 145 146 154 155 158 163 169 171 175 180 192 196 194 198 200 181 194 201 184 186 188 179 182 191 196 194 198 198 197 203 191 190 194 196 210 221 214 215 221 221 225 224 237 239 234 234 236 237 235 240 236 239 237 240
171 227 193 187 169 213 218 204 206 220 210 204 190 190 178 176 168 176 182 155 154 153 157 157 156 148 138 125 118 120 132 142 139 143 149 162 167 166 169 176 183 185 188 193 189 188 201 171 160 187 200 191 185 193 168 170 203 201 198 199 204 202 202 205 200 200 204 201 207 220 216 218 223 225 223 224 227 237 238 239 241 246 241 236 234 238 240
178 213 177 170 199 206 211 168 204 202 188 197 186 178 177 181 171 173 162 155 154 155 159 155 141 143 145 140 134 138 137 135 144 152 161 168 172 175 184 186 188 187 187 194 185 191 173 144 170 187 195 195 187 196 157 164 190 210 204 202 203 209 202 207 212 208 210 215 210 210 217 222 223 226 232 231 229 225 224 231 241 239 238 246 250 243 232
177 201 181 186 214 204 185 180 209 188 179 196 191 178 178 177 177 174 161 156 149 163 159 149 152 155 158 155 152 154 156 156 161 165 170 175 182 185 188 188 186 187 193 210 197 192 163 155 178 193 193 197 190 192 158 164 177 206 216 213 202 205 211 211 213 218 214 213 220 218 228 223 225 230 232 236 237 235 239 227 220 229 241 246 246 246 247
179 195 192 202 196 191 195 190 193 202 185 182 194 183 177 187 181 174 160 151 148 163 159 157 159 157 163 162 162 159 162 164 170 172 175 177 185 189 190 187 188 195 199 202 204 168 143 173 188 193 195 197 194 194 162 164 178 203 214 223 219 210 209 214 220 219 223 221 219 221 221 228 232 232 234 235 237 241 238 237 240 238 232 230 236 243 247
211 182 196 197 192 191 195 193 189 190 193 181 183 179 185 185 182 179 160 147 153 167 160 164 156 160 162 163 162 162 163 170 175 179 182 186 184 186 189 194 183 198 190 178 106 129 163 176 193 201 199 197 198 183 152 165 186 197 209 217 225 223 224 219 218 224 227 228 229 225 224 226 227 230 229 231 235 238 241 244 242 240 241 240 239 238 239
210 195 190 198 190 187 195 192 192 195 184 186 183 189 187 182 180 178 161 155 160 168 169 159 146 153 161 169 167 168 166 171 178 183 187 194 193 194 195 196 190 185 149 181 186 181 187 196 193 202 203 210 181 134 143 176 196 201 207 212 218 222 227 229 230 224 224 229 230 232 231 229 227 230 231 234 233 232 234 236 242 245 245 243 242 239 241
190 206 197 201 189 184 196 192 190 189 191 190 190 193 189 185 187 186 173 166 170 172 175 165 165 174 173 174 173 174 171 173 179 182 187 192 196 200 203 208 206 157 151 177 191 198 195 198 200 192 188 208 144 148 168 196 203 208 208 211 214 218 223 227 228 232 234 229 230 233 233 233 236 237 237 235 237 239 238 237 237 236 239 241 244 246 247
188 199 203 199 196 180 196 189 196 192 191 182 187 196 197 194 194 195 187 181 180 176 188 175 171 176 179 176 178 182 177 177 183 179 188 193 195 201 196 227 202 144 161 169 191 203 207 201 193 174 175 175 150 176 194 204 207 212 212 213 217 219 222 223 228 229 232 236 236 233 237 238 233 234 239 244 247 246 243 241 240 243 246 247 246 246 244
191 192 193 197 211 196 203 197 190 190 190 183 185 194 201 203 201 202 198 197 189 182 193 188 179 182 185 179 181 182 181 181 188 189 195 198 195 201 188 206 193 158 156 163 192 200 213 191 157 158 167 163 158 184 210 213 212 213 218 221 219 220 222 224 224 229 230 231 234 236 235 234 239 242 242 239 233 235 239 241 254 257 254 250 247 247 248
190 193 189 190 199 204 205 210 190 190 195 189 193 196 199 208 205 208 204 207 202 192 192 194 189 187 190 189 186 187 187 185 188 193 200 200 202 215 183 180 148 147 164 177 197 204 215 160 153 163 162 165 169 200 211 216 217 220 219 220 222 221 220 224 228 229 228 230 231 236 242 247 249 245 238 236 242 246 246 240 238 239 244 250 256 259 260
192 195 193 192 195 189 203 207 194 194 197 203 202 203 196 205 209 211 206 206 204 200 198 197 193 190 193 197 200 201 199 190 191 189 193 203 201 202 198 187 150 163 170 189 199 210 193 142 155 165 168 167 182 207 212 216 221 223 222 220 220 224 226 227 227 229 232 234 229 229 232 232 236 242 249 252 251 242 236 235 238 238 240 242 245 247 248
196 196 192 190 197 187 199 205 201 201 207 197 205 208 189 200 204 211 207 204 202 201 201 206 205 199 194 199 205 205 206 210 214 210 192 205 206 200 204 160 143 162 173 189 196 205 162 155 164 168 169 171 193 207 214 216 220 223 226 226 227 227 231 232 234 232 233 232 234 235 237 237 238 238 238 238 241 246 250 252 255 261 258 250 247 247 249
192 194 194 194 197 196 196 202 208 208 206 202 200 208 193 193 203 205 206 204 203 205 205 203 205 206 205 201 206 214 213 216 210 218 206 196 212 213 206 172 156 166 178 201 202 210 161 161 167 169 169 186 200 212 218 219 219 220 226 228 233 237 235 236 237 242 248 249 245 242 239 239 241 242 244 248 251 251 247 243 242 238 240 252 261 263 255
192 200 202 197 203 199 197 209 209 206 212 208 206 206 200 199 205 202 202 202 203 205 210 206 208 208 207 208 207 211 217 211 212 209 222 214 211 207 225 207 154 174 179 201 205 216 202 181 181 170 183 198 210 217 219 221 222 225 224 231 232 235 238 240 241 243 240 242 247 251 253 253 251 252 250 249 245 245 249 253 255 259 253 249 246 243 242
204 207 208 200 204 198 199 206 210 208 212 207 210 207 205 202 206 205 202 204 211 204 210 212 209 205 213 210 210 212 215 219 215 203 216 225 220 215 202 215 176 171 181 194 211 214 220 212 186 172 188 202 216 220 219 223 230 231 232 231 233 236 236 241 242 240 241 239 239 243 245 247 250 251 250 251 252 252 251 249 247 244 242 244 245 242 238